Location: Alfortville
(48.8058°N, 2.4204°E)
Time: 21:53:07
(UTC+00:00)

SR - Pass Details

Date: 20 April 2026
Orbit: 568 x 852 km, 66.7° (Epoch: 19 May)

Event Time Altitude Azimuth Distance (km) Brightness Sun altitude
Rises 20:53:51 0° 325° (NW) 3,267 ? -18.2°
Reaches altitude 10° 20:56:16 10° 330° (NNW) 2,374 ? -18.5°
Maximum altitude 21:01:41 57° 49° (NE) 973 ? -19.1°
Enters shadow 21:04:06 33° 112° (ESE) 1,379 ? -19.4°
